• In Hungary
  • List of Countries
  • For 7 days
  • Water Temperature
  • Satellite Maps
  • Weather Map
  • News
  • Weather Widgets
  • user-avatar
    Login

    Hourly Weather Chochlow

    Today, 24 May, Thursday

    Time Temperature Precipitation Wind Pressure Humidity
    00:00 +16°C° 0 mm 3 mps 746 mmHg 91%
    01:00 +14°C° 0 mm 3 mps 746 mmHg 92%
    02:00 +14°C° 0 mm 3 mps 746 mmHg 94%
    03:00 +13°C° 0 mm 3 mps 746 mmHg 94%
    04:00 +13°C° 0 mm 3 mps 746 mmHg 94%
    05:00 +13°C° 0 mm 3 mps 746 mmHg 94%
    06:00 +14°C° 0 mm 3 mps 746 mmHg 90%
    07:00 +15°C° 0 mm 4 mps 746 mmHg 86%
    08:00 +17°C° 0 mm 4 mps 746 mmHg 82%
    09:00 +19°C° 0.1 mm 4 mps 746 mmHg 77%
    10:00 +20°C° 0.1 mm 5 mps 746 mmHg 72%
    11:00 +21°C° 0.1 mm 5 mps 746 mmHg 67%
    12:00 +22°C° 0.2 mm 5 mps 746 mmHg 64%
    13:00 +22°C° 0.2 mm 5 mps 746 mmHg 62%
    14:00 +23°C° 0.2 mm 5 mps 746 mmHg 60%
    15:00 +23°C° 0.1 mm 4 mps 745 mmHg 60%
    16:00 +23°C° 0.1 mm 4 mps 745 mmHg 61%
    17:00 +22°C° 0.1 mm 4 mps 745 mmHg 61%
    18:00 +21°C° 0 mm 4 mps 745 mmHg 68%
    19:00 +19°C° 0 mm 3 mps 745 mmHg 74%
    20:00 +18°C° 0 mm 3 mps 745 mmHg 80%
    21:00 +17°C° 0 mm 3 mps 745 mmHg 82%
    22:00 +16°C° 0 mm 3 mps 745 mmHg 84%
    23:00 +14°C° 0 mm 3 mps 745 mmHg 87%

    Tomorrow, 25 May, Friday

    Time Temperature Precipitation Wind Pressure Humidity
    00:00 +13°C° 0 mm 3 mps 745 mmHg 89%
    01:00 +14°C° 0 mm 2 mps 745 mmHg 90%
    02:00 +13°C° 0 mm 2 mps 745 mmHg 92%
    03:00 +13°C° 0 mm 2 mps 744 mmHg 93%
    04:00 +13°C° 0 mm 2 mps 744 mmHg 94%
    05:00 +12°C° 0 mm 2 mps 744 mmHg 94%
    06:00 +14°C° 0 mm 2 mps 745 mmHg 89%
    07:00 +16°C° 0 mm 2 mps 745 mmHg 84%
    08:00 +18°C° 0 mm 3 mps 745 mmHg 79%
    09:00 +19°C° 0.2 mm 3 mps 745 mmHg 74%
    10:00 +21°C° 0.2 mm 3 mps 745 mmHg 70%
    11:00 +22°C° 0.2 mm 3 mps 745 mmHg 66%
    12:00 +23°C° 0.8 mm 4 mps 745 mmHg 66%
    13:00 +23°C° 0.8 mm 4 mps 745 mmHg 67%
    14:00 +23°C° 0.8 mm 4 mps 745 mmHg 67%
    15:00 +23°C° 0.6 mm 4 mps 745 mmHg 70%
    16:00 +23°C° 0.6 mm 4 mps 745 mmHg 72%
    17:00 +24°C° 0.6 mm 3 mps 745 mmHg 74%
    18:00 +21°C° 0.5 mm 3 mps 745 mmHg 79%
    19:00 +20°C° 0.5 mm 3 mps 745 mmHg 83%
    20:00 +19°C° 0.5 mm 3 mps 745 mmHg 88%
    21:00 +18°C° 0.2 mm 3 mps 746 mmHg 89%
    22:00 +18°C° 0.2 mm 3 mps 746 mmHg 91%
    23:00 +17°C° 0.2 mm 3 mps 746 mmHg 92%

    Day after tomorrow, 26 May, Saturday

    Time Temperature Precipitation Wind Pressure Humidity
    00:00 +17°C° 0 mm 3 mps 746 mmHg 93%
    01:00 +16°C° 0 mm 3 mps 746 mmHg 93%
    02:00 +16°C° 0 mm 3 mps 747 mmHg 94%
    03:00 +16°C° 0 mm 3 mps 747 mmHg 94%
    04:00 +16°C° 0 mm 3 mps 747 mmHg 94%
    05:00 +16°C° 0 mm 3 mps 747 mmHg 94%
    06:00 +17°C° 0 mm 4 mps 747 mmHg 91%
    07:00 +18°C° 0 mm 4 mps 748 mmHg 88%
    08:00 +19°C° 0 mm 4 mps 748 mmHg 86%
    09:00 +21°C° 0 mm 5 mps 748 mmHg 80%
    10:00 +22°C° 0 mm 5 mps 748 mmHg 75%
    11:00 +23°C° 0 mm 5 mps 748 mmHg 70%
    12:00 +25°C° 0.1 mm 5 mps 748 mmHg 68%
    13:00 +25°C° 0.1 mm 5 mps 748 mmHg 66%
    14:00 +26°C° 0.1 mm 5 mps 748 mmHg 63%
    15:00 +25°C° 0.2 mm 5 mps 747 mmHg 65%
    16:00 +25°C° 0.2 mm 5 mps 747 mmHg 67%
    17:00 +25°C° 0.2 mm 5 mps 747 mmHg 68%
    18:00 +22°C° 0.1 mm 5 mps 747 mmHg 73%
    19:00 +21°C° 0.1 mm 4 mps 747 mmHg 78%
    20:00 +19°C° 0.1 mm 4 mps 747 mmHg 83%
    21:00 +18°C° 0 mm 4 mps 747 mmHg 85%
    22:00 +17°C° 0 mm 4 mps 747 mmHg 87%
    23:00 +15°C° 0 mm 4 mps 747 mmHg 89%

    27 May, Sunday

    Time Temperature Precipitation Wind Pressure Humidity
    00:00 +15°C° 0 mm 4 mps 747 mmHg 91%
    01:00 +14°C° 0 mm 4 mps 747 mmHg 93%
    02:00 +14°C° 0 mm 4 mps 747 mmHg 95%
    03:00 +13°C° 0 mm 3 mps 747 mmHg 95%
    04:00 +13°C° 0 mm 3 mps 747 mmHg 95%
    05:00 +12°C° 0 mm 3 mps 747 mmHg 95%
    06:00 +14°C° 0 mm 4 mps 747 mmHg 91%
    07:00 +15°C° 0 mm 4 mps 747 mmHg 86%
    08:00 +17°C° 0 mm 4 mps 747 mmHg 82%
    09:00 +19°C° 0 mm 4 mps 747 mmHg 78%
    10:00 +20°C° 0 mm 4 mps 747 mmHg 75%
    11:00 +21°C° 0 mm 4 mps 747 mmHg 71%
    12:00 +22°C° 0 mm 4 mps 747 mmHg 69%
    13:00 +23°C° 0 mm 4 mps 747 mmHg 68%
    14:00 +25°C° 0 mm 4 mps 747 mmHg 66%
    15:00 +25°C° 0 mm 4 mps 747 mmHg 67%
    16:00 +25°C° 0 mm 4 mps 746 mmHg 67%
    17:00 +25°C° 0 mm 4 mps 746 mmHg 68%
    18:00 +22°C° 0 mm 4 mps 746 mmHg 74%
    19:00 +21°C° 0 mm 3 mps 746 mmHg 80%
    20:00 +20°C° 0 mm 3 mps 746 mmHg 87%
    21:00 +19°C° 0 mm 3 mps 747 mmHg 89%
    22:00 +18°C° 0 mm 3 mps 747 mmHg 92%
    23:00 +17°C° 0 mm 3 mps 747 mmHg 94%

    28 May, Monday

    Time Temperature Precipitation Wind Pressure Humidity
    00:00 +17°C° 0 mm 3 mps 747 mmHg 94%
    01:00 +16°C° 0 mm 3 mps 747 mmHg 94%
    02:00 +16°C° 0 mm 3 mps 747 mmHg 95%
    03:00 +14°C° 0 mm 3 mps 747 mmHg 95%
    04:00 +14°C° 0 mm 3 mps 747 mmHg 94%
    05:00 +14°C° 0 mm 3 mps 748 mmHg 94%
    06:00 +16°C° 0 mm 3 mps 748 mmHg 89%
    07:00 +18°C° 0 mm 4 mps 748 mmHg 83%
    08:00 +19°C° 0 mm 4 mps 749 mmHg 78%
    09:00 +20°C° 0 mm 5 mps 749 mmHg 73%
    10:00 +22°C° 0 mm 5 mps 749 mmHg 69%
    11:00 +23°C° 0 mm 5 mps 749 mmHg 65%
    12:00 +23°C° 0 mm 5 mps 749 mmHg 64%
    13:00 +25°C° 0 mm 5 mps 749 mmHg 62%
    14:00 +25°C° 0 mm 5 mps 749 mmHg 61%
    15:00 +25°C° 0 mm 5 mps 749 mmHg 63%
    16:00 +25°C° 0 mm 5 mps 749 mmHg 65%
    17:00 +23°C° 0 mm 5 mps 748 mmHg 66%
    18:00 +22°C° 0 mm 4 mps 749 mmHg 71%
    19:00 +21°C° 0 mm 4 mps 749 mmHg 77%
    20:00 +20°C° 0 mm 4 mps 749 mmHg 82%
    21:00 +19°C° 0 mm 4 mps 749 mmHg 82%
    22:00 +18°C° 0 mm 4 mps 749 mmHg 83%
    23:00 +17°C° 0 mm 4 mps 749 mmHg 83%

    29 May, Tuesday

    Time Temperature Precipitation Wind Pressure Humidity
    00:00 +15°C° 0 mm 4 mps 749 mmHg 84%
    01:00 +15°C° 0 mm 4 mps 749 mmHg 84%
    02:00 +14°C° 0 mm 4 mps 750 mmHg 84%
    03:00 +14°C° 0 mm 4 mps 750 mmHg 85%
    04:00 +13°C° 0 mm 4 mps 750 mmHg 86%
    05:00 +13°C° 0 mm 4 mps 750 mmHg 87%
    06:00 +14°C° 0 mm 4 mps 750 mmHg 83%
    07:00 +16°C° 0 mm 5 mps 750 mmHg 78%
    08:00 +17°C° 0 mm 5 mps 750 mmHg 74%
    09:00 +19°C° 0 mm 5 mps 750 mmHg 70%
    10:00 +21°C° 0 mm 6 mps 750 mmHg 66%
    11:00 +22°C° 0 mm 6 mps 750 mmHg 62%
    12:00 +22°C° 0 mm 6 mps 750 mmHg 60%
    13:00 +23°C° 0 mm 6 mps 750 mmHg 59%
    14:00 +25°C° 0 mm 5 mps 750 mmHg 58%
    15:00 +23°C° 0 mm 5 mps 749 mmHg 59%
    16:00 +23°C° 0 mm 5 mps 749 mmHg 60%
    17:00 +23°C° 0 mm 5 mps 749 mmHg 61%
    18:00 +22°C° 0 mm 4 mps 748 mmHg 67%
    19:00 +20°C° 0 mm 4 mps 748 mmHg 73%
    20:00 +19°C° 0 mm 3 mps 748 mmHg 79%
    21:00 +18°C° 0 mm 3 mps 748 mmHg 81%
    22:00 +17°C° 0 mm 3 mps 748 mmHg 83%
    23:00 +15°C° 0 mm 4 mps 748 mmHg 85%
    Show more